TimePST,TemperatureF,Dew PointF,Humidity,Sea Level PressureIn,VisibilityMPH,Wind Direction,Wind SpeedMPH,Gust SpeedMPH,PrecipitationIn,Events,Conditions,WindDirDegrees,DateUTC
12:52 AM,30.9,23.0,72,30.09,-9999.0,NE,5.8,-,N/A,,Unknown,40,2013-02-23 08:52:00
1:52 AM,28.9,23.0,78,30.07,-9999.0,NE,5.8,-,N/A,,Unknown,50,2013-02-23 09:52:00
2:52 AM,28.9,23.0,78,30.06,-9999.0,Calm,Calm,-,N/A,,Unknown,0,2013-02-23 10:52:00
3:52 AM,28.9,23.0,78,30.05,-9999.0,ENE,5.8,-,N/A,,Unknown,70,2013-02-23 11:52:00
4:52 AM,30.0,21.9,72,30.04,-9999.0,NE,6.9,-,N/A,,Unknown,50,2013-02-23 12:52:00
5:52 AM,28.0,21.9,78,30.05,-9999.0,NE,5.8,-,N/A,,Unknown,40,2013-02-23 13:52:00
6:52 AM,28.9,23.0,78,30.06,-9999.0,ENE,6.9,-,N/A,,Unknown,60,2013-02-23 14:52:00
7:52 AM,39.0,27.0,62,30.05,-9999.0,ENE,3.5,-,N/A,,Unknown,60,2013-02-23 15:52:00
8:52 AM,48.0,28.9,48,30.04,-9999.0,Calm,Calm,-,N/A,,Unknown,0,2013-02-23 16:52:00
9:52 AM,55.0,28.0,35,30.02,-9999.0,West,8.1,-,N/A,,Unknown,280,2013-02-23 17:52:00
10:52 AM,57.0,28.0,33,30.01,-9999.0,West,8.1,-,N/A,,Unknown,280,2013-02-23 18:52:00
11:52 AM,57.9,30.9,36,29.97,-9999.0,SW,10.4,-,N/A,,Unknown,230,2013-02-23 19:52:00
12:52 PM,59.0,30.9,35,29.94,-9999.0,SW,12.7,20.7,N/A,,Unknown,220,2013-02-23 20:52:00
1:52 PM,60.1,30.0,32,29.91,-9999.0,West,12.7,19.6,N/A,,Unknown,260,2013-02-23 21:52:00
2:52 PM,59.0,30.0,33,29.89,-9999.0,SW,15.0,20.7,N/A,,Unknown,230,2013-02-23 22:52:00
3:52 PM,57.0,30.0,36,29.88,-9999.0,SW,12.7,-,N/A,,Unknown,230,2013-02-23 23:52:00
4:52 PM,54.0,28.0,37,29.88,-9999.0,SW,15.0,-,N/A,,Unknown,220,2013-02-24 00:52:00
5:52 PM,48.9,27.0,43,29.89,-9999.0,SW,11.5,-,N/A,,Unknown,230,2013-02-24 01:52:00
6:52 PM,46.9,34.0,61,29.92,-9999.0,WSW,8.1,-,N/A,,Unknown,250,2013-02-24 02:52:00
7:52 PM,39.9,30.9,70,29.92,-9999.0,Calm,Calm,-,N/A,,Unknown,0,2013-02-24 03:52:00
8:52 PM,35.1,28.9,78,29.92,-9999.0,Calm,Calm,-,N/A,,Unknown,0,2013-02-24 04:52:00
9:52 PM,32.0,28.0,85,29.91,-9999.0,NE,6.9,-,N/A,,Unknown,50,2013-02-24 05:52:00
10:52 PM,33.1,28.0,82,29.91,-9999.0,Calm,Calm,-,N/A,,Unknown,0,2013-02-24 06:52:00
11:52 PM,30.9,26.1,82,29.92,-9999.0,NNE,3.5,-,N/A,,Unknown,20,2013-02-24 07:52:00